EZY901 KBHM-KJWN

Flight info

Callsign EZY901
Flight time N/A
Altitude 23000
Route DCT RHETT DCT PRONE DCT SWFFT/N0402F220
Aircraft A20N/M-SDE2E3FGHIRWXY/LB1

Departure

Time 2026-04-23 00:00
Airport Birmingham-Shuttlesworth International Airport (KBHM)

Arrival

Time N/A
Airport John C Tune Airport (KJWN)
Time Latitude Longitude Altitude Speed Heading
2026-04-22 23:25 33.56393 -86.75048 636 ft 0 kts 197°
2026-04-22 23:31 33.56395 -86.75047 636 ft 2 kts 197°
2026-04-22 23:31 33.56411 -86.75041 635 ft 2 kts 197°
2026-04-22 23:31 33.56427 -86.75035 633 ft 2 kts 197°
2026-04-22 23:32 33.56443 -86.75029 632 ft 2 kts 197°
2026-04-22 23:32 33.56459 -86.75027 633 ft 2 kts 144°
2026-04-22 23:32 33.56466 -86.75036 637 ft 0 kts 98°
2026-04-22 23:37 33.56457 -86.74992 632 ft 16 kts 111°
2026-04-22 23:37 33.56431 -86.74941 634 ft 11 kts 111°
2026-04-22 23:37 33.56425 -86.74918 629 ft 8 kts 105°
2026-04-22 23:37 33.56446 -86.74859 632 ft 8 kts 34°
2026-04-22 23:38 33.56506 -86.74852 633 ft 11 kts
2026-04-22 23:38 33.56615 -86.74835 634 ft 15 kts 40°
2026-04-22 23:38 33.56667 -86.74748 635 ft 14 kts 56°
2026-04-22 23:38 33.56730 -86.74638 637 ft 17 kts 54°
2026-04-22 23:39 33.56805 -86.74508 639 ft 21 kts 54°
2026-04-22 23:39 33.56896 -86.74353 641 ft 23 kts 55°
2026-04-22 23:39 33.56984 -86.74197 645 ft 22 kts 52°
2026-04-22 23:39 33.57034 -86.74160 640 ft 6 kts 355°
2026-04-22 23:40 33.57068 -86.74176 641 ft 1 kts 328°
2026-04-22 23:40 33.57069 -86.74177 641 ft 2 kts 328°
2026-04-22 23:41 33.57130 -86.74248 643 ft 16 kts 289°
2026-04-22 23:41 33.57102 -86.74344 640 ft 11 kts 238°
2026-04-22 23:41 33.56937 -86.74631 638 ft 78 kts 236°
2026-04-22 23:41 33.56471 -86.75436 637 ft 156 kts 235°
2026-04-22 23:42 33.55773 -86.76625 918 ft 169 kts 235°
2026-04-22 23:42 33.55184 -86.77628 611 ft 158 kts 234°
2026-04-22 23:42 33.56393 -86.75048 611 ft 0 kts 197°
2026-04-22 23:52 33.56405 -86.75043 635 ft 2 kts 197°
2026-04-22 23:52 33.56421 -86.75037 636 ft 2 kts 197°
2026-04-22 23:53 33.56437 -86.75031 631 ft 2 kts 197°
2026-04-22 23:53 33.56453 -86.75029 633 ft 2 kts 144°
2026-04-22 23:53 33.56458 -86.75034 634 ft 0 kts 115°
2026-04-22 23:55 33.56443 -86.74993 631 ft 18 kts 111°
2026-04-22 23:55 33.56431 -86.74947 633 ft 9 kts 102°
2026-04-22 23:55 33.56424 -86.74902 631 ft 8 kts 91°
2026-04-22 23:55 33.56444 -86.74866 636 ft 0 kts
2026-04-22 23:56 33.56475 -86.74858 632 ft 12 kts 11°
2026-04-22 23:56 33.56594 -86.74850 633 ft 16 kts 16°
2026-04-22 23:56 33.56648 -86.74780 636 ft 10 kts 57°
2026-04-22 23:56 33.56712 -86.74670 645 ft 22 kts 54°
2026-04-22 23:57 33.56806 -86.74507 639 ft 23 kts 55°
2026-04-22 23:57 33.56899 -86.74345 638 ft 24 kts 56°
2026-04-22 23:57 33.56988 -86.74194 639 ft 17 kts 54°
2026-04-22 23:57 33.57072 -86.74180 641 ft 1 kts 328°
2026-04-22 23:58 33.57073 -86.74181 641 ft 1 kts 327°
2026-04-22 23:58 33.57132 -86.74260 640 ft 7 kts 282°
2026-04-22 23:59 33.57123 -86.74309 644 ft 9 kts 238°
2026-04-22 23:59 33.57005 -86.74515 639 ft 63 kts 236°
2026-04-22 23:59 33.56606 -86.75205 640 ft 140 kts 235°
2026-04-22 23:59 33.55948 -86.76353 836 ft 183 kts 236°
2026-04-23 00:00 33.54992 -86.79235 2240 ft 197 kts 275°
2026-04-23 00:00 33.55279 -86.80911 2835 ft 212 kts 285°
2026-04-23 00:00 33.55687 -86.82645 3450 ft 227 kts 286°
2026-04-23 00:01 33.56141 -86.84515 3989 ft 238 kts 286°
2026-04-23 00:01 33.56618 -86.86457 4247 ft 241 kts 288°
2026-04-23 00:01 33.57479 -86.88145 3971 ft 240 kts 321°
2026-04-23 00:01 33.59013 -86.88811 3827 ft 250 kts 360°
2026-04-23 00:02 33.60694 -86.88164 3814 ft 263 kts 37°
2026-04-23 00:02 33.61766 -86.86408 3947 ft 268 kts 72°
2026-04-23 00:02 33.62281 -86.84253 4673 ft 271 kts 71°
2026-04-23 00:02 33.62995 -86.82162 5722 ft 271 kts 64°
2026-04-23 00:03 33.63908 -86.80164 6708 ft 273 kts 58°
2026-04-23 00:03 33.64968 -86.78252 7622 ft 277 kts 54°
2026-04-23 00:03 33.66127 -86.76384 8501 ft 281 kts 51°
2026-04-23 00:03 33.67563 -86.74798 9256 ft 283 kts 30°
2026-04-23 00:04 33.69357 -86.73785 9706 ft 287 kts 21°
2026-04-23 00:04 33.71233 -86.72952 9824 ft 288 kts 19°
2026-04-23 00:04 33.73127 -86.72150 9834 ft 289 kts 19°
2026-04-23 00:04 33.75025 -86.71343 9833 ft 289 kts 19°
2026-04-23 00:05 33.76922 -86.70529 9833 ft 290 kts 19°
2026-04-23 00:05 33.78823 -86.69708 9833 ft 290 kts 19°
2026-04-23 00:05 33.80692 -86.68896 9833 ft 290 kts 19°
2026-04-23 00:05 33.82587 -86.68072 9833 ft 290 kts 19°
2026-04-23 00:06 33.84481 -86.67246 9833 ft 290 kts 19°
2026-04-23 00:06 33.86376 -86.66420 9888 ft 291 kts 19°
2026-04-23 00:06 33.88327 -86.65568 10127 ft 309 kts 19°
2026-04-23 00:06 33.90423 -86.64653 10482 ft 331 kts 19°
2026-04-23 00:07 33.92636 -86.63686 10773 ft 341 kts 19°
2026-04-23 00:07 33.94836 -86.62723 10833 ft 332 kts 19°
2026-04-23 00:07 33.96994 -86.61778 10835 ft 328 kts 19°
2026-04-23 00:07 33.99140 -86.60838 10833 ft 328 kts 19°
2026-04-23 00:08 34.01282 -86.59899 10833 ft 328 kts 19°